| time (UTC) | temp C | wind direction | speed KPH | gust KPH | rain 1hr cm | rain 24hr cm | rain mn cm | humidity % | barometer mb |
| 20260831080040 | 7 | 285 | 0.0 | 1.6 | 0.00 | 0.00 | 0.00 | 78 | 1014.7 |
| 20260831074534 | 7 | 322 | 0.0 | 1.6 | 0.00 | 0.00 | 0.00 | 77 | 1014.9 |
| 20260831073033 | 7 | 250 | 0.0 | 4.8 | 0.00 | 0.00 | 0.00 | 76 | 1014.8 |
| 20260831071539 | 8 | 238 | 3.2 | 8.0 | 0.00 | 0.00 | 0.00 | 74 | 1014.8 |
| 20260831070023 | 8 | 219 | 0.0 | 3.2 | 0.00 | 0.00 | 0.00 | 73 | 1014.7 |
| 20260831064521 | 9 | 229 | 0.0 | 3.2 | 0.00 | 0.00 | 0.00 | 71 | 1014.7 |
| 20260831063017 | 10 | 290 | 0.0 | 4.8 | 0.00 | 0.00 | 0.00 | 69 | 1014.8 |
| 20260831061514 | 10 | 280 | 1.6 | 8.0 | 0.00 | 0.00 | 0.00 | 68 | 1014.8 |
| 20260831060002 | 11 | 269 | 1.6 | 9.7 | 0.00 | 0.00 | 0.00 | 67 | 1014.4 |
| 20260831054502 | 11 | 303 | 3.2 | 9.7 | 0.00 | 0.00 | 0.00 | 67 | 1014.4 |
| 20260831053005 | 11 | 239 | 1.6 | 6.4 | 0.00 | 0.00 | 0.00 | 66 | 1014.4 |
| 20260831051501 | 11 | 266 | 1.6 | 11.3 | 0.00 | 0.00 | 0.00 | 66 | 1014.3 |
| 20260831044611 | 11 | 269 | 4.8 | 12.9 | 0.00 | 0.05 | 0.00 | 67 | 1014.3 |
| 20260831043058 | 11 | 273 | 4.8 | 12.9 | 0.00 | 0.05 | 0.00 | 68 | 1014.3 |
| 20260831041600 | 11 | 252 | 3.2 | 9.7 | 0.00 | 0.05 | 0.00 | 68 | 1014.3 |
| 20260831040058 | 11 | 275 | 1.6 | 8.0 | 0.00 | 0.08 | 0.00 | 67 | 1014.4 |
| 20260831034557 | 12 | 258 | 6.4 | 16.1 | 0.00 | 0.08 | 0.00 | 64 | 1014.6 |
| 20260831033057 | 13 | 76 | 3.2 | 16.1 | 0.00 | 0.08 | 0.00 | 60 | 1014.6 |
| 20260831031555 | 13 | 316 | 1.6 | 6.4 | 0.00 | 0.08 | 0.00 | 59 | 1014.2 |
| 20260831030003 | 13 | 288 | 1.6 | 9.7 | 0.00 | 0.08 | 0.00 | 61 | 1014.0 |
| 20260831024507 | 14 | 298 | 0.0 | 6.4 | 0.00 | 0.08 | 0.00 | 57 | 1013.9 |
| 20260831023001 | 15 | 266 | 1.6 | 9.7 | 0.00 | 0.08 | 0.00 | 53 | 1013.7 |
| 20260831021505 | 15 | 250 | 1.6 | 12.9 | 0.00 | 0.08 | 0.00 | 48 | 1013.3 |
| 20260831020059 | 15 | 309 | 6.4 | 19.3 | 0.00 | 0.08 | 0.00 | 46 | 1013.1 |
| 20260831014559 | 15 | 246 | 9.7 | 20.9 | 0.00 | 0.08 | 0.00 | 47 | 1013.1 |
| 20260831013109 | 15 | 240 | 9.7 | 22.5 | 0.00 | 0.08 | 0.00 | 48 | 1013.1 |
| 20260831011559 | 15 | 259 | 8.0 | 17.7 | 0.00 | 0.08 | 0.00 | 49 | 1013.0 |
| 20260831010056 | 14 | 290 | 4.8 | 20.9 | 0.00 | 0.08 | 0.00 | 54 | 1013.1 |
| 20260831004554 | 15 | 293 | 6.4 | 19.3 | 0.00 | 0.08 | 0.00 | 49 | 1013.3 |
| 20260831003103 | 15 | 236 | 3.2 | 9.7 | 0.00 | 0.08 | 0.00 | 55 | 1013.2 |
| 20260831001553 | 15 | 314 | 8.0 | 17.7 | 0.00 | 0.08 | 0.00 | 55 | 1013.5 |
| 20260831000023 | 15 | 265 | 4.8 | 14.5 | 0.00 | 0.28 | 0.00 | 54 | 1013.4 |
| 20260830234534 | 15 | 297 | 9.7 | 30.6 | 0.00 | 0.28 | 0.00 | 52 | 1013.4 |
| 20260830233017 | 17 | 297 | 8.0 | 16.1 | 0.00 | 0.28 | 0.00 | 46 | 1013.2 |
| 20260830231518 | 18 | 288 | 6.4 | 24.1 | 0.00 | 0.28 | 0.00 | 42 | 1012.9 |
| 20260830230016 | 18 | 207 | 4.8 | 19.3 | 0.00 | 0.30 | 0.00 | 42 | 1012.8 |
| 20260830224515 | 18 | 339 | 8.0 | 20.9 | 0.00 | 0.30 | 0.00 | 40 | 1012.8 |
| 20260830223012 | 18 | 304 | 8.0 | 27.4 | 0.00 | 0.30 | 0.00 | 40 | 1012.9 |
| 20260830221512 | 18 | 266 | 12.9 | 27.4 | 0.00 | 0.30 | 0.00 | 40 | 1013.0 |
| 20260830220010 | 18 | 274 | 9.7 | 33.8 | 0.00 | 0.30 | 0.00 | 39 | 1013.2 |
| 20260830214510 | 17 | 234 | 11.3 | 29.0 | 0.00 | 0.30 | 0.00 | 41 | 1013.4 |
| 20260830213009 | 17 | 337 | 8.0 | 27.4 | 0.00 | 0.30 | 0.00 | 44 | 1013.5 |
| 20260830211505 | 17 | 273 | 11.3 | 22.5 | 0.00 | 0.30 | 0.00 | 42 | 1013.7 |
| 20260830210004 | 17 | 239 | 11.3 | 29.0 | 0.00 | 0.30 | 0.00 | 42 | 1013.5 |
| 20260830204504 | 18 | 233 | 6.4 | 30.6 | 0.00 | 0.30 | 0.00 | 43 | 1013.6 |
| 20260830203003 | 17 | 232 | 9.7 | 22.5 | 0.00 | 0.30 | 0.00 | 42 | 1013.5 |
| 20260830201604 | 18 | 217 | 9.7 | 40.2 | 0.00 | 0.30 | 0.00 | 42 | 1013.5 |
| 20260830200058 | 18 | 254 | 8.0 | 30.6 | 0.00 | 0.30 | 0.00 | 41 | 1013.5 |
| 20260830194557 | 17 | 230 | 8.0 | 20.9 | 0.00 | 0.30 | 0.00 | 43 | 1013.6 |
| 20260830193056 | 17 | 239 | 9.7 | 20.9 | 0.00 | 0.30 | 0.00 | 43 | 1013.4 |
| 20260830191554 | 18 | 296 | 6.4 | 19.3 | 0.00 | 0.30 | 0.00 | 41 | 1013.5 |
| 20260830190124 | 18 | 221 | 6.4 | 27.4 | 0.00 | 0.30 | 0.00 | 41 | 1013.4 |
| 20260830184607 | 17 | 251 | 8.0 | 20.9 | 0.00 | 0.30 | 0.00 | 40 | 1013.4 |
| 20260830183101 | 18 | 252 | 9.7 | 27.4 | 0.00 | 0.30 | 0.00 | 39 | 1013.4 |
| 20260830181549 | 18 | 254 | 19.3 | 37.0 | 0.00 | 0.30 | 0.00 | 38 | 1013.5 |
| 20260830180045 | 18 | 287 | 9.7 | 25.7 | 0.00 | 0.30 | 0.00 | 41 | 1013.5 |
| 20260830174556 | 18 | 243 | 11.3 | 22.5 | 0.00 | 0.30 | 0.00 | 42 | 1013.4 |
| 20260830173042 | 17 | 276 | 6.4 | 24.1 | 0.00 | 0.30 | 0.00 | 41 | 1013.6 |
| 20260830171541 | 17 | 271 | 4.8 | 22.5 | 0.00 | 0.30 | 0.00 | 45 | 1013.7 |
| 20260830170036 | 17 | 284 | 11.3 | 27.4 | 0.00 | 0.30 | 0.00 | 44 | 1013.9 |
| 20260830164533 | 17 | 285 | 8.0 | 24.1 | 0.00 | 0.30 | 0.00 | 44 | 1013.8 |
| 20260830163035 | 17 | 131 | 3.2 | 16.1 | 0.00 | 0.30 | 0.00 | 47 | 1014.0 |
| 20260830161527 | 16 | 287 | 1.6 | 9.7 | 0.00 | 0.30 | 0.00 | 48 | 1013.9 |
| 20260830160034 | 16 | 252 | 1.6 | 16.1 | 0.00 | 0.30 | 0.00 | 48 | 1014.2 |
| 20260830154520 | 15 | 330 | 4.8 | 14.5 | 0.00 | 0.30 | 0.00 | 52 | 1014.2 |
| 20260830153018 | 15 | 288 | 1.6 | 8.0 | 0.00 | 0.30 | 0.00 | 54 | 1014.5 |
| 20260830151512 | 14 | 295 | 0.0 | 4.8 | 0.00 | 0.30 | 0.00 | 55 | 1014.5 |
| 20260830150012 | 13 | 278 | 0.0 | 9.7 | 0.00 | 0.30 | 0.00 | 62 | 1014.6 |
| 20260830144506 | 11 | 282 | 0.0 | 4.8 | 0.00 | 0.30 | 0.00 | 68 | 1014.5 |
| 20260830143007 | 10 | 315 | 0.0 | 1.6 | 0.00 | 0.30 | 0.00 | 70 | 1014.3 |
| 20260830141502 | 10 | 296 | 0.0 | 1.6 | 0.00 | 0.30 | 0.00 | 70 | 1014.6 |
| 20260830140001 | 10 | 296 | 0.0 | 1.6 | 0.00 | 0.30 | 0.00 | 70 | 1014.8 |
| 20260830134602 | 10 | 293 | 0.0 | 1.6 | 0.00 | 0.30 | 0.00 | 71 | 1014.8 |
| 20260830134501 | 10 | 293 | 0.0 | 1.6 | 0.00 | 0.30 | 0.00 | 71 | 1014.8 |
| 20260830133100 | 10 | 297 | 0.0 | 3.2 | 0.00 | 0.30 | 0.00 | 71 | 1014.8 |
| 20260830131555 | 10 | 293 | 0.0 | 1.6 | 0.00 | 0.30 | 0.00 | 71 | 1014.8 |
| 20260830130053 | 11 | 294 | 0.0 | 1.6 | 0.00 | 0.30 | 0.00 | 71 | 1014.6 |
| 20260830124550 | 11 | 311 | 0.0 | 4.8 | 0.00 | 0.30 | 0.00 | 71 | 1014.4 |
| 20260830123048 | 11 | 300 | 0.0 | 6.4 | 0.00 | 0.30 | 0.00 | 74 | 1014.2 |
| 20260830121545 | 11 | 295 | 0.0 | 1.6 | 0.00 | 0.30 | 0.00 | 82 | 1014.3 |
| 20260830120049 | 12 | 295 | 0.0 | 1.6 | 0.00 | 0.30 | 0.00 | 84 | 1014.3 |
| 20260830114544 | 12 | 232 | 9.7 | 16.1 | 0.00 | 0.30 | 0.00 | 81 | 1014.5 |
| 20260830113042 | 12 | 304 | 1.6 | 4.8 | 0.00 | 0.30 | 0.00 | 82 | 1014.1 |
| 20260830111540 | 12 | 296 | 0.0 | 4.8 | 0.00 | 0.30 | 0.00 | 82 | 1014.2 |
| 20260830110039 | 12 | 268 | 0.0 | 3.2 | 0.00 | 0.30 | 0.00 | 84 | 1014.3 |
| 20260830104559 | 12 | 290 | 0.0 | 3.2 | 0.00 | 0.30 | 0.00 | 85 | 1014.2 |
| 20260830103038 | 11 | 301 | 0.0 | 1.6 | 0.00 | 0.30 | 0.00 | 85 | 1014.2 |
| 20260830101512 | 12 | 4 | 0.0 | 4.8 | 0.00 | 0.30 | 0.00 | 86 | 1013.9 |
| 20260830100006 | 12 | 194 | 0.0 | 0.0 | 0.00 | 0.30 | 0.00 | 84 | 1013.9 |
| 20260830094504 | 12 | 232 | 0.0 | 6.4 | 0.00 | 0.30 | 0.00 | 84 | 1014.0 |
| 20260830093004 | 12 | 356 | 1.6 | 6.4 | 0.00 | 0.30 | 0.00 | 86 | 1013.9 |
| 20260830091502 | 12 | 284 | 0.0 | 1.6 | 0.00 | 0.30 | 0.00 | 84 | 1013.6 |
| 20260830090001 | 12 | 256 | 6.4 | 12.9 | 0.00 | 0.30 | 0.00 | 83 | 1014.0 |
| 20260830084559 | 12 | 224 | 11.3 | 17.7 | 0.00 | 0.30 | 0.00 | 83 | 1014.4 |
| 20260830083106 | 13 | 227 | 9.7 | 22.5 | 0.00 | 0.30 | 0.00 | 81 | 1014.4 |
| 20260830081557 | 13 | 252 | 12.9 | 32.2 | 0.00 | 0.30 | 0.00 | 81 | 1015.0 |